Tracking 34348 objects as of 9-Jun-2026
HD Live streaming from Space Station
objects crossing your sky now

STARLINK-2410

Track STARLINK-2410 now!
10-day predictions
STARLINK-2410 is classified as:


NORAD ID: 47825
Int'l Code: 2021-018AQ
Perigee: 477.1 km
Apogee: 478.7 km
Inclination: 53.2 °
Period: 94.0 minutes
Semi major axis: 6848 km
RCS: Unknown
Launch date: March 11, 2021
Source: United States (US)
Launch site: AIR FORCE EASTERN TEST RANGE (AFETR)
Your satellite tracking list
Your tracking list is empty




NASA's NSSDC Master Catalog

Two Line Element Set (TLE):
1 47825U 21018AQ  26159.76843319 -.00001073  00000-0 -22836-4 0  9990
2 47825  53.1602 179.1585 0001159 108.9350 251.1777 15.31691631290684
Source of the keplerian elements: AFSPC